ARIANE 3 DEB, 27026

Orbit data source: Space-Track

ARIANE 3 DEB, 27026 is space debris in HEO originally from a launch on Thu, 08 Sep 1988 UTC launched from the French Guiana (FRGUI). Debris objects in space refer to the collection of defunct objects orbiting the Earth. Examples of debris include non-operational satellites, rocket bodies, and fragments generated from explosions, collisions, or faulty payload assembly.

Loading next visibility...
Identifier
27026, 1988-081J
Orbit
HEO
Country
Flag of FRFR
Related business
Manufacturer
Unknown
Mission
Spacecraft
Bus & Motor
Unknown
Mass
Unknown
Launch date (UTC)
1988-09-08 (37 years ago)
Launch vehicle
Unknown
Launch site
French Guiana (FRGUI)
Object type
Payload
Rocket body
Debris
Shape & HBR
Unknown shape, 1.1 m
Radar Cross Section
Medium (>0.1 m² and <1 m²)

Expand to show TLE details & history
Last TLE update: 5 days ago

TLE from 5 days ago
0 ARIANE 3 DEB
1 27026U 88081J   25303.52010006  .00000311  00000-0  49043-2 0  9996
2 27026   7.6325 276.8260 7091219  92.5486  13.3157  2.35541071260989
Epoch: 2025-10-30T12:28Z
TLE epoch observation values (Epoch: 2025-10-30T12:28:56.645Z)
Latitude
0.87661°
Longitude
-136.24257°
Altitude
4,228.273 km
Speed
7.645 km/s
True Right ascension
06h 00m 17s
True Declination
0° 52' 23"
Sunlit
Object was in daylight at epoch
Visualization orbit readout
Latitude
Unknown
Longitude
Unknown
Altitude
Unknown
Speed
Unknown
Apparent Right ascension
Unknown
Apparent Declination
Unknown
Sunlit
N/A
Visualization observer readout
Local Sidereal Time
04:58:59
Azimuth
Unknown
Elevation
Unknown
Doppler factor
Unknown
Orbital elements
Apogee altitude
34,412.206 km
Perigee altitude
564.035 km
Semi-major axis
23,866.257 km
Eccentricity
0.70912
Inclination
7.6325°
RAAN
276.826°
Arg. of periapsis
92.5486°
True anomaly
80.87939°
Mean anomaly
13.3157°
Eccentric anomaly
38.74279°
Mean motion
0.58866 °/min
Orbital period
611.56 mins
BSTAR
0.0049043
Loading maneuver chart data...
Computing Atmospheric mass density...
Loading historical data...
Loading historical data...
Loading historical data...
Loading historical data...
Loading historical data...
Loading historical data...
Loading historical data...

Documentation

Showing up to 5 results
|